ONEWEB-0032, 45141

Orbit data source: Space-Track

ONEWEB-0032, 45141 is a payload satellite owned by One Web (UK) in LEO that was launched on Thu, 06 Feb 2020 UTC via a SOYUZ-2-1B launch vehicle from the Tyuratam Missile And Space Complex (TTMTR). Payload-class satellites include a variety of spacecraft equipped with specific instruments for various scientific and technological missions. These include communications satellites like Starlink; space stations such as the ISS; scientific satellites like the Hubble; Earth observation satellites from companies like Planet Labs, Umbra, and HawkEye 360; GPS; miniature CubeSats for education and research; and military/defense satellites.

Loading next visibility...
Identifier
45141, 2020-008L
Orbit
LEO
Country
Flag of UKUK
Related business
Manufacturer
One Web
Mission
Operational Commercial Communications
Bus & Motor
ARROW, Unknown motor
Mass
148 kg wet, ~140 kg dry
Launch date (UTC)
2020-02-06 (6 years ago)
Launch vehicle
SOYUZ-2-1B
Launch site
Tyuratam Missile And Space Complex (TTMTR)
Object type
Payload
Rocket body
Debris
Shape & HBR
Trap Box + 2 Pan, 6.7 m
Radar Cross Section
3.464 m², Large (>1 m²)

Expand to show TLE details & history
Last TLE update: 16 hours ago

TLE from 16 hours ago
0 ONEWEB-0032
1 45141U 20008L   25287.20660431  .00000669  00000-0  18801-2 0  9992
2 45141  87.8746  85.3149 0001507  88.6377 271.4923 13.10370868276087
Epoch: 2025-10-14T04:57Z
TLE epoch observation values (Epoch: 2025-10-14T04:57:30.612Z)
Latitude
-0.00001°
Longitude
-12.06101°
Altitude
1,224.583 km
Speed
7.242 km/s
True Right ascension
05h 41m 15s
True Declination
0° 00' 00"
Sunlit
Object was in daylight at epoch
Visualization orbit readout
Latitude
Unknown
Longitude
Unknown
Altitude
Unknown
Speed
Unknown
Apparent Right ascension
Unknown
Apparent Declination
Unknown
Sunlit
N/A
Visualization observer readout
Local Sidereal Time
15:47:23
Azimuth
Unknown
Elevation
Unknown
Doppler factor
Unknown
Orbital elements
Apogee altitude
1,219.989 km
Perigee altitude
1,217.7 km
Semi-major axis
7,596.982 km
Eccentricity
0.00015
Inclination
87.8746°
RAAN
85.3149°
Arg. of periapsis
88.6377°
True anomaly
271.47504°
Mean anomaly
271.4923°
Eccentric anomaly
271.48367°
Mean motion
3.27779 °/min
Orbital period
109.83 mins
BSTAR
0.0018801
Loading maneuver chart data...
Computing Atmospheric mass density...
Loading historical data...
Loading historical data...
Loading historical data...
Loading historical data...
Loading historical data...
Loading historical data...
Loading historical data...

Documentation

Showing up to 5 results
|